Lancaster, OH

12:32 PM EDT on September 22, 2017 (GMT -0400)
Fairfield County

Weather History for KLHQ - September, 2011

Change the Weather History Date:

Wednesday, September 21, 2011

  Actual Average Record
Temperature  
Mean Temperature 69 °F -  
Max Temperature 75 °F 76 °F 92 °F (1940)
Min Temperature 63 °F 50 °F 29 °F (1962)
Cooling Degree Days 4    
Growing Degree Days 19 (Base 50)    
Moisture  
Dew Point 65 °F    
Average Humidity 85    
Maximum Humidity 97    
Minimum Humidity 73    
Precipitation  
Precipitation 0.01 in - - ()
Sea Level Pressure  
Sea Level Pressure 30.03 in    
Wind  
Wind Speed 5 mph (South)    
Max Wind Speed 10 mph    
Max Gust Speed -    
Visibility 9 miles    
Events Rain    
Averages and records for this station are not official NWS values.
T = Trace of Precipitation, MM = Missing Value Source: NWS Daily Summary

Daily Weather History Graph

Daily Weather History Graph

Search for Another Location

Airport or City:

Trip Planner

Search our weather history database for the weather conditions in past years. The results will help you decide how hot, cold, wet, or windy it might be!

Date:

Astronomy

Sep. 21, 2011 Rise Set
Actual Time 7:17 AM EDT 7:29 PM EDT
Civil Twilight 6:50 AM EDT 7:56 PM EDT
Nautical Twilight 6:18 AM EDT 8:28 PM EDT
Astronomical Twilight 5:46 AM EDT 9:00 PM EDT
Moon 12:36 AM EDT (9/21) 3:38 PM EDT (9/21)
Length of Visible Light 13h 06m
Length of Day
12h 12m
Last Quarter, 39% of the Moon is Illuminated
Sep 21
Last Quarter
Sep 27
New
Oct 3
First Quarter
Oct 11
Full
Oct 19
Last Quarter

Hourly Weather History & Observations

Time (EDT) Temp. Dew Point Humidity Pressure Visibility Wind Dir Wind Speed Gust Speed Precip Events Conditions
12:53 AM 66.0 °F 64.0 °F 93% 30.07 in 7.0 mi SSE 4.6 mph - N/A   Overcast
1:53 AM 66.0 °F 63.0 °F 90% 30.06 in 8.0 mi SE 5.8 mph - N/A   Overcast
3:53 AM 64.9 °F 63.0 °F 93% 30.06 in 9.0 mi SSE 4.6 mph - N/A   Overcast
6:53 AM 64.9 °F 62.1 °F 90% 30.05 in 8.0 mi SSE 4.6 mph - N/A   Overcast
7:53 AM 63.0 °F 62.1 °F 97% 30.05 in 4.0 mi ESE 3.5 mph - 0.00 in   Mostly Cloudy
8:53 AM 66.0 °F 63.0 °F 90% 30.06 in 7.0 mi SE 5.8 mph - N/A   Overcast
10:53 AM 73.0 °F 66.0 °F 79% 30.04 in 10.0 mi SSE 5.8 mph - N/A   Mostly Cloudy
11:53 AM 73.9 °F 64.9 °F 73% 30.04 in 10.0 mi South 10.4 mph - N/A   Mostly Cloudy
12:53 PM 73.9 °F 64.9 °F 73% 30.03 in 10.0 mi SSW 8.1 mph - N/A   Scattered Clouds
1:53 PM 75.0 °F 66.0 °F 73% 30.02 in 10.0 mi South 10.4 mph - N/A   Partly Cloudy
2:53 PM 73.0 °F 66.0 °F 79% 30.01 in 10.0 mi SSW 5.8 mph - 0.00 in   Mostly Cloudy
3:02 PM 73.4 °F 66.2 °F 78% 30.03 in 10.0 mi SSW 4.6 mph - N/A   Overcast
3:26 PM 73.4 °F 66.2 °F 78% 30.02 in 10.0 mi South 6.9 mph - 0.00 in   Scattered Clouds
3:53 PM 73.0 °F 66.0 °F 79% 30.00 in 7.0 mi SSW 6.9 mph - 0.00 in Rain Light Rain
4:53 PM 72.0 °F 66.9 °F 84% 30.00 in 9.0 mi South 5.8 mph - 0.01 in Rain Light Rain
5:00 PM 73.4 °F 66.2 °F 78% 30.01 in 10.0 mi South 6.9 mph - 0.00 in   Scattered Clouds
5:53 PM 72.0 °F 64.9 °F 78% 30.00 in 10.0 mi South 9.2 mph - 0.00 in   Scattered Clouds
6:53 PM 71.1 °F 64.9 °F 81% 30.00 in 10.0 mi South 5.8 mph - N/A   Partly Cloudy
7:53 PM 69.1 °F 64.0 °F 84% 30.01 in 10.0 mi Calm Calm - N/A   Mostly Cloudy
8:31 PM 68.0 °F 64.4 °F 88% 30.03 in 10.0 mi South 3.5 mph - N/A   Mostly Cloudy
9:23 PM 68.0 °F 64.4 °F 88% 30.04 in 10.0 mi Calm Calm - N/A   Mostly Cloudy
9:53 PM 68.0 °F 64.9 °F 90% 30.03 in 10.0 mi South 4.6 mph - N/A   Overcast
10:38 PM 66.2 °F 64.4 °F 94% 30.05 in 10.0 mi South 5.8 mph - N/A   Mostly Cloudy
10:53 PM 66.9 °F 64.0 °F 90% 30.03 in 10.0 mi South 4.6 mph - N/A   Scattered Clouds
11:17 PM 66.2 °F 64.4 °F 94% 30.05 in 10.0 mi SSW 3.5 mph - N/A   Mostly Cloudy
11:35 PM 66.2 °F 64.4 °F 94% 30.05 in 10.0 mi SSW 3.5 mph - N/A   Scattered Clouds
11:53 PM 66.9 °F 64.9 °F 93% 30.04 in 10.0 mi South 3.5 mph - N/A   Mostly Cloudy